sat.trackr.live / text

‹ back to catalog

STARLINK-34358

NORAD 64313 · 2025-123Y

PAYLOAD ACTIVE UNKNOWN

§ Identity

Operator
Country
US
Launch date
2025-06-08
Launch site
AFWTR
Launch vehicle
Mass (kg)
RCS (m²)

Purposes: comms

External: N2YO · Heavens-Above · Gunter

§ Orbital elements

Epoch: 2026-05-25T00:46:01.748352Z

Period
96.11 min
Inclination
70.0015°
Eccentricity
0.0002457
Mean motion
14.98337512 rev/d
Perigee alt
570.3 km
Apogee alt
573.7 km
Semi-major
6,950.2 km
B*
2.9117e-4
RAAN
1.9821°
Arg perigee
270.1149°
Mean anomaly
89.9728°
Rev number
5,305

§ Raw data

STARLINK-343581 64313U 25123Y   26145.03196468  .00003383  00000+0  29117-3 0  99942 64313  70.0015   1.9821 0002457 270.1149  89.9728 14.98337512 53054

JSON: /api/v1/satellites/64313 · /tle

For live sub-satellite position, see the globe view (requires WebGL).

§ Visibility from observer

Set your observer location to see the next 7 days of passes ≥ 10°. The values pass through the URL so the page stays shareable.

No JS? Fill the form by hand. The geolocation button needs JavaScript.